When you browse on this site, cookies collect data to enhance your experience and personalize the content and advertising you see.
Visit our Privacy Policy to learn more. By continuing to use the site, you agree to this use of cookies and data.
  • In Latvia
  • List of Countries
  • For 7 days
  • Water Temperature
  • Weather Map
  • Weather Widgets
  • user-avatar
    Login

    Hourly Weather Oran

    Today, 2 June, Tuesday

    Time Temperature Precipitation Wind Pressure Humidity
    00:00 +23°C° 0 mm 1 mps 751 mmHg 70%
    01:00 +23°C° 0 mm 1 mps 751 mmHg 73%
    02:00 +22°C° 0 mm 1 mps 750 mmHg 75%
    03:00 +22°C° 0 mm 1 mps 750 mmHg 77%
    04:00 +22°C° 0 mm 1 mps 750 mmHg 78%
    05:00 +22°C° 0 mm 1 mps 750 mmHg 79%
    06:00 +22°C° 0 mm 1 mps 750 mmHg 82%
    07:00 +23°C° 0 mm 1 mps 751 mmHg 74%
    08:00 +25°C° 0 mm 2 mps 751 mmHg 66%
    09:00 +26°C° 0 mm 2 mps 751 mmHg 57%
    10:00 +27°C° 0 mm 2 mps 751 mmHg 52%
    11:00 +29°C° 0 mm 3 mps 751 mmHg 47%
    12:00 +30°C° 0 mm 3 mps 750 mmHg 42%
    13:00 +30°C° 0 mm 3 mps 750 mmHg 44%
    14:00 +30°C° 0 mm 3 mps 750 mmHg 45%
    15:00 +30°C° 0 mm 4 mps 750 mmHg 46%
    16:00 +29°C° 0 mm 3 mps 749 mmHg 49%
    17:00 +28°C° 0 mm 2 mps 749 mmHg 52%
    18:00 +27°C° 0 mm 1 mps 749 mmHg 55%
    19:00 +26°C° 0 mm 2 mps 749 mmHg 62%
    20:00 +24°C° 0 mm 2 mps 750 mmHg 69%
    21:00 +23°C° 0 mm 2 mps 750 mmHg 75%
    22:00 +23°C° 0 mm 2 mps 750 mmHg 77%
    23:00 +23°C° 0 mm 2 mps 750 mmHg 78%

    Tomorrow, 3 June, Wednesday

    Time Temperature Precipitation Wind Pressure Humidity
    00:00 +21°C° 0 mm 2 mps 750 mmHg 80%
    01:00 +21°C° 0 mm 2 mps 749 mmHg 82%
    02:00 +21°C° 0 mm 2 mps 749 mmHg 85%
    03:00 +20°C° 0 mm 2 mps 749 mmHg 87%
    04:00 +20°C° 0 mm 2 mps 748 mmHg 84%
    05:00 +21°C° 0 mm 2 mps 748 mmHg 81%
    06:00 +21°C° 0 mm 2 mps 748 mmHg 78%
    07:00 +24°C° 0 mm 2 mps 748 mmHg 69%
    08:00 +25°C° 0 mm 3 mps 748 mmHg 59%
    09:00 +27°C° 0 mm 3 mps 749 mmHg 50%
    10:00 +28°C° 0 mm 3 mps 748 mmHg 47%
    11:00 +29°C° 0 mm 4 mps 748 mmHg 44%
    12:00 +30°C° 0 mm 5 mps 748 mmHg 41%
    13:00 +30°C° 0 mm 5 mps 747 mmHg 40%
    14:00 +30°C° 0 mm 5 mps 747 mmHg 39%
    15:00 +30°C° 0 mm 5 mps 747 mmHg 38%
    16:00 +30°C° 0 mm 5 mps 746 mmHg 39%
    17:00 +29°C° 0 mm 6 mps 746 mmHg 41%
    18:00 +28°C° 0 mm 6 mps 746 mmHg 42%
    19:00 +27°C° 0 mm 6 mps 746 mmHg 42%
    20:00 +27°C° 0 mm 5 mps 746 mmHg 43%
    21:00 +26°C° 0 mm 5 mps 746 mmHg 43%
    22:00 +26°C° 0 mm 5 mps 746 mmHg 41%
    23:00 +26°C° 0 mm 6 mps 746 mmHg 40%

    Day after tomorrow, 4 June, Thursday

    Time Temperature Precipitation Wind Pressure Humidity
    00:00 +26°C° 0 mm 6 mps 745 mmHg 39%
    01:00 +24°C° 0 mm 7 mps 745 mmHg 40%
    02:00 +24°C° 0 mm 7 mps 745 mmHg 40%
    03:00 +23°C° 0 mm 7 mps 745 mmHg 41%
    04:00 +23°C° 0 mm 8 mps 745 mmHg 47%
    05:00 +23°C° 0 mm 8 mps 745 mmHg 53%
    06:00 +22°C° 0 mm 8 mps 745 mmHg 59%
    07:00 +23°C° 0 mm 9 mps 745 mmHg 54%
    08:00 +26°C° 0 mm 10 mps 746 mmHg 49%
    09:00 +27°C° 0 mm 11 mps 746 mmHg 44%
    10:00 +27°C° 0 mm 11 mps 746 mmHg 43%
    11:00 +28°C° 0 mm 11 mps 746 mmHg 42%
    12:00 +28°C° 0 mm 12 mps 746 mmHg 41%
    13:00 +28°C° 0 mm 12 mps 746 mmHg 39%
    14:00 +28°C° 0 mm 11 mps 746 mmHg 38%
    15:00 +28°C° 0 mm 11 mps 746 mmHg 37%
    16:00 +28°C° 0 mm 10 mps 746 mmHg 40%
    17:00 +27°C° 0 mm 10 mps 746 mmHg 44%
    18:00 +26°C° 0 mm 9 mps 746 mmHg 47%
    19:00 +26°C° 0 mm 8 mps 746 mmHg 52%
    20:00 +24°C° 0 mm 8 mps 747 mmHg 58%
    21:00 +23°C° 0 mm 8 mps 748 mmHg 63%
    22:00 +23°C° 0 mm 8 mps 748 mmHg 66%
    23:00 +22°C° 0 mm 8 mps 748 mmHg 68%

    5 June, Friday

    Time Temperature Precipitation Wind Pressure Humidity
    00:00 +22°C° 0 mm 8 mps 748 mmHg 71%
    01:00 +22°C° 0 mm 7 mps 748 mmHg 73%
    02:00 +21°C° 0 mm 7 mps 748 mmHg 76%
    03:00 +21°C° 0 mm 7 mps 748 mmHg 78%
    04:00 +21°C° 0 mm 7 mps 748 mmHg 76%
    05:00 +21°C° 0 mm 7 mps 748 mmHg 74%
    06:00 +22°C° 0 mm 7 mps 749 mmHg 72%
    07:00 +23°C° 0 mm 7 mps 749 mmHg 65%
    08:00 +26°C° 0 mm 7 mps 749 mmHg 57%
    09:00 +27°C° 0 mm 7 mps 750 mmHg 50%
    10:00 +28°C° 0 mm 6 mps 750 mmHg 48%
    11:00 +29°C° 0 mm 6 mps 750 mmHg 46%
    12:00 +29°C° 0 mm 6 mps 749 mmHg 44%
    13:00 +29°C° 0 mm 6 mps 749 mmHg 44%
    14:00 +29°C° 0 mm 6 mps 749 mmHg 44%
    15:00 +29°C° 0 mm 5 mps 749 mmHg 43%
    16:00 +29°C° 0 mm 5 mps 748 mmHg 44%
    17:00 +29°C° 0 mm 4 mps 748 mmHg 44%
    18:00 +28°C° 0 mm 3 mps 748 mmHg 45%
    19:00 +28°C° 0 mm 3 mps 749 mmHg 47%
    20:00 +27°C° 0 mm 2 mps 749 mmHg 49%
    21:00 +26°C° 0 mm 2 mps 749 mmHg 51%
    22:00 +26°C° 0 mm 2 mps 749 mmHg 52%
    23:00 +26°C° 0 mm 2 mps 749 mmHg 53%

    6 June, Saturday

    Time Temperature Precipitation Wind Pressure Humidity
    00:00 +25°C° 0 mm 2 mps 748 mmHg 54%
    01:00 +25°C° 0 mm 2 mps 748 mmHg 55%
    02:00 +24°C° 0 mm 2 mps 748 mmHg 57%
    03:00 +24°C° 0 mm 2 mps 748 mmHg 58%
    04:00 +24°C° 0 mm 2 mps 748 mmHg 58%
    05:00 +24°C° 0 mm 2 mps 748 mmHg 57%
    06:00 +24°C° 0 mm 2 mps 748 mmHg 57%
    07:00 +26°C° 0 mm 3 mps 748 mmHg 52%
    08:00 +27°C° 0 mm 3 mps 749 mmHg 47%
    09:00 +29°C° 0 mm 4 mps 749 mmHg 43%
    10:00 +29°C° 0 mm 4 mps 749 mmHg 41%
    11:00 +30°C° 0 mm 4 mps 749 mmHg 39%
    12:00 +32°C° 0 mm 4 mps 749 mmHg 38%
    13:00 +32°C° 0 mm 4 mps 748 mmHg 38%
    14:00 +32°C° 0 mm 4 mps 748 mmHg 39%
    15:00 +32°C° 0 mm 4 mps 747 mmHg 39%
    16:00 +32°C° 0 mm 4 mps 747 mmHg 40%
    17:00 +30°C° 0 mm 3 mps 747 mmHg 42%
    18:00 +29°C° 0 mm 3 mps 747 mmHg 43%
    19:00 +28°C° 0 mm 4 mps 747 mmHg 47%
    20:00 +26°C° 0 mm 5 mps 747 mmHg 51%
    21:00 +24°C° 0 mm 6 mps 748 mmHg 55%
    22:00 +24°C° 0.1 mm 6 mps 748 mmHg 57%
    23:00 +23°C° 0.1 mm 7 mps 749 mmHg 59%

    7 June, Sunday

    Time Temperature Precipitation Wind Pressure Humidity
    00:00 +23°C° 0.1 mm 7 mps 749 mmHg 61%
    01:00 +23°C° 0 mm 7 mps 749 mmHg 61%
    02:00 +22°C° 0 mm 7 mps 749 mmHg 62%
    03:00 +22°C° 0 mm 7 mps 749 mmHg 62%
    04:00 +22°C° 0 mm 7 mps 749 mmHg 61%
    05:00 +22°C° 0 mm 7 mps 750 mmHg 61%
    06:00 +22°C° 0 mm 8 mps 750 mmHg 61%
    07:00 +23°C° 0 mm 8 mps 750 mmHg 59%
    08:00 +24°C° 0 mm 8 mps 750 mmHg 57%
    09:00 +26°C° 0 mm 9 mps 751 mmHg 55%
    10:00 +26°C° 0 mm 9 mps 751 mmHg 53%
    11:00 +27°C° 0 mm 8 mps 751 mmHg 51%
    12:00 +28°C° 0 mm 8 mps 751 mmHg 49%
    13:00 +28°C° 0 mm 8 mps 750 mmHg 47%
    14:00 +28°C° 0 mm 8 mps 750 mmHg 45%
    15:00 +28°C° 0 mm 8 mps 750 mmHg 43%
    16:00 +28°C° 0 mm 7 mps 750 mmHg 43%
    17:00 +27°C° 0 mm 7 mps 750 mmHg 43%
    18:00 +27°C° 0 mm 7 mps 750 mmHg 42%
    19:00 +26°C° 0 mm 7 mps 750 mmHg 44%
    20:00 +24°C° 0 mm 6 mps 751 mmHg 46%
    21:00 +24°C° 0 mm 6 mps 751 mmHg 49%
    22:00 +24°C° 0 mm 6 mps 751 mmHg 49%
    23:00 +23°C° 0 mm 5 mps 751 mmHg 50%
    Show more